Location: Newark
(48.6461°N, 4.3644°W)
Time: 06:43:38
(UTC+00:00)

A-11 Canister half - Pass Details

Date: 01 February 2020
Orbit: 1517 x 1683 km, 47.2° (Epoch: 27 February)

Event Time Altitude Azimuth Distance (km) Brightness Sun altitude
Exits shadow 06:29:04 10° 252° (WSW) 3,672 10.5 -13.2°
Maximum altitude 06:31:17 11° 237° (WSW) 3,591 10.5 -12.8°
Drops below altitude 10° 06:33:36 10° 222° (SW) 3,686 10.7 -12.4°
Sets 06:39:54 0° 191° (S) 4,690 11.6 -11.4°
